TimeEST,TemperatureF,Dew PointF,Humidity,Sea Level PressureIn,VisibilityMPH,Wind Direction,Wind SpeedMPH,Gust SpeedMPH,PrecipitationIn,Events,Conditions,WindDirDegrees,DateUTC
12:15 AM,41.0,37.4,87,30.15,7.0,Calm,Calm,-,N/A,,Clear,0,2012-11-23 05:15:00
12:35 AM,41.0,38.3,90,30.14,7.0,WNW,3.5,-,N/A,,Clear,290,2012-11-23 05:35:00
12:55 AM,41.0,37.9,89,30.13,10.0,Calm,Calm,-,N/A,,Clear,0,2012-11-23 05:55:00
1:15 AM,41.0,37.9,89,30.13,10.0,Calm,Calm,-,N/A,,Clear,0,2012-11-23 06:15:00
1:35 AM,39.4,36.7,90,30.12,7.0,Calm,Calm,-,N/A,,Clear,0,2012-11-23 06:35:00
1:55 AM,39.7,37.4,91,30.13,7.0,Calm,Calm,-,N/A,,Clear,0,2012-11-23 06:55:00
2:15 AM,39.4,36.5,89,30.12,7.0,Calm,Calm,-,N/A,,Clear,0,2012-11-23 07:15:00
2:35 AM,39.2,36.5,90,30.12,7.0,Calm,Calm,-,N/A,,Clear,0,2012-11-23 07:35:00
2:55 AM,38.8,36.1,90,30.11,7.0,Calm,Calm,-,N/A,,Clear,0,2012-11-23 07:55:00
3:15 AM,38.3,36.0,91,30.10,7.0,Calm,Calm,-,N/A,,Clear,0,2012-11-23 08:15:00
3:35 AM,37.0,34.7,91,30.09,7.0,Calm,Calm,-,N/A,,Clear,0,2012-11-23 08:35:00
3:55 AM,37.6,35.2,91,30.09,7.0,Calm,Calm,-,N/A,,Clear,0,2012-11-23 08:55:00
4:15 AM,37.4,35.1,91,30.09,7.0,Calm,Calm,-,N/A,,Clear,0,2012-11-23 09:15:00
4:35 AM,37.4,35.2,92,30.09,7.0,Calm,Calm,-,N/A,,Clear,0,2012-11-23 09:35:00
4:55 AM,36.9,34.9,93,30.09,7.0,Calm,Calm,-,N/A,,Clear,0,2012-11-23 09:55:00
5:15 AM,36.5,34.7,93,30.08,7.0,Calm,Calm,-,N/A,,Clear,0,2012-11-23 10:15:00
5:35 AM,36.5,34.7,93,30.08,7.0,Calm,Calm,-,N/A,,Clear,0,2012-11-23 10:35:00
5:55 AM,36.1,34.3,93,30.07,7.0,Calm,Calm,-,N/A,,Clear,0,2012-11-23 10:55:00
6:15 AM,36.5,34.9,94,30.06,7.0,Calm,Calm,-,N/A,,Clear,0,2012-11-23 11:15:00
6:35 AM,36.3,34.5,93,30.06,7.0,Calm,Calm,-,N/A,,Clear,0,2012-11-23 11:35:00
6:55 AM,36.3,34.5,93,30.06,7.0,Calm,Calm,-,N/A,,Clear,0,2012-11-23 11:55:00
7:15 AM,35.1,33.3,93,30.06,5.0,Calm,Calm,-,N/A,,Clear,0,2012-11-23 12:15:00
7:35 AM,35.8,34.0,93,30.05,5.0,Calm,Calm,-,N/A,,Clear,0,2012-11-23 12:35:00
7:55 AM,37.8,35.8,93,30.04,5.0,Calm,Calm,-,N/A,,Clear,0,2012-11-23 12:55:00
8:15 AM,38.7,36.3,91,30.04,7.0,Calm,Calm,-,N/A,,Clear,0,2012-11-23 13:15:00
8:35 AM,40.6,37.6,89,30.04,7.0,Calm,Calm,-,N/A,,Clear,0,2012-11-23 13:35:00
8:55 AM,43.5,39.2,85,30.03,7.0,Calm,Calm,-,N/A,,Clear,0,2012-11-23 13:55:00
9:15 AM,45.0,40.5,84,30.02,7.0,Calm,Calm,-,N/A,,Clear,0,2012-11-23 14:15:00
9:35 AM,47.1,41.5,81,30.02,10.0,Calm,Calm,-,N/A,,Clear,0,2012-11-23 14:35:00
9:55 AM,49.1,42.4,78,30.01,10.0,West,4.6,-,N/A,,Clear,260,2012-11-23 14:55:00
10:15 AM,50.0,42.6,76,30.00,10.0,West,6.9,-,N/A,,Clear,260,2012-11-23 15:15:00
10:35 AM,51.4,42.4,71,29.98,10.0,SW,3.5,-,N/A,,Clear,230,2012-11-23 15:35:00
10:55 AM,52.5,41.9,67,29.97,10.0,WSW,3.5,-,N/A,,Clear,240,2012-11-23 15:55:00
11:15 AM,54.0,41.7,63,29.95,10.0,SW,3.5,-,N/A,,Clear,220,2012-11-23 16:15:00
11:35 AM,55.0,42.3,62,29.94,10.0,SW,4.6,-,N/A,,Clear,230,2012-11-23 16:35:00
11:55 AM,55.4,41.2,59,29.91,10.0,SW,3.5,-,N/A,,Clear,220,2012-11-23 16:55:00
12:15 PM,55.8,41.2,58,29.91,10.0,SSW,3.5,-,N/A,,Clear,200,2012-11-23 17:15:00
12:35 PM,56.7,41.0,56,29.90,10.0,South,4.6,-,N/A,,Clear,190,2012-11-23 17:35:00
12:55 PM,57.2,40.6,54,29.89,10.0,South,4.6,-,N/A,,Clear,180,2012-11-23 17:55:00
1:15 PM,57.9,40.3,52,29.87,10.0,South,6.9,-,N/A,,Clear,180,2012-11-23 18:15:00
1:35 PM,57.6,40.1,52,29.86,10.0,South,8.1,-,N/A,,Clear,170,2012-11-23 18:35:00
1:55 PM,58.1,40.1,51,29.85,10.0,SSE,6.9,-,N/A,,Clear,160,2012-11-23 18:55:00
2:15 PM,58.3,40.8,52,29.84,10.0,SSE,6.9,-,N/A,,Clear,160,2012-11-23 19:15:00
2:35 PM,57.2,43.0,59,29.83,10.0,SE,6.9,-,N/A,,Clear,140,2012-11-23 19:35:00
2:55 PM,56.7,43.7,62,29.81,10.0,ESE,5.8,-,N/A,,Clear,120,2012-11-23 19:55:00
3:15 PM,56.5,43.7,62,29.81,10.0,SE,5.8,-,N/A,,Clear,130,2012-11-23 20:15:00
3:35 PM,56.3,43.7,63,29.80,10.0,SE,5.8,-,N/A,,Clear,130,2012-11-23 20:35:00
3:55 PM,55.8,44.4,66,29.79,10.0,SE,5.8,-,N/A,,Clear,130,2012-11-23 20:55:00
4:15 PM,55.0,45.5,70,29.79,10.0,SE,3.5,-,N/A,,Clear,130,2012-11-23 21:15:00
4:35 PM,53.8,46.4,76,29.78,10.0,SE,3.5,-,N/A,,Clear,130,2012-11-23 21:35:00
4:55 PM,53.2,46.6,78,29.78,10.0,SE,5.8,-,N/A,,Clear,130,2012-11-23 21:55:00
5:15 PM,53.1,46.6,79,29.78,10.0,ESE,3.5,-,N/A,,Clear,120,2012-11-23 22:15:00
5:35 PM,52.7,46.4,79,29.78,10.0,SSE,3.5,-,N/A,,Clear,150,2012-11-23 22:35:00
5:55 PM,52.7,46.4,79,29.78,10.0,Calm,Calm,-,N/A,,Clear,0,2012-11-23 22:55:00
6:15 PM,52.3,46.2,80,29.77,10.0,SSE,4.6,-,N/A,,Scattered Clouds,150,2012-11-23 23:15:00
6:35 PM,52.0,46.0,80,29.78,10.0,Calm,Calm,-,N/A,,Mostly Cloudy,0,2012-11-23 23:35:00
6:55 PM,52.2,45.7,79,29.77,10.0,South,4.6,-,N/A,,Mostly Cloudy,180,2012-11-23 23:55:00
7:35 PM,52.7,45.5,76,29.76,10.0,South,3.5,-,N/A,,Overcast,180,2012-11-24 00:35:00
7:55 PM,52.5,44.8,75,29.75,10.0,South,4.6,-,N/A,,Overcast,170,2012-11-24 00:55:00
8:15 PM,52.7,44.1,72,29.75,10.0,Calm,Calm,-,N/A,,Overcast,0,2012-11-24 01:15:00
8:35 PM,52.7,43.7,71,29.75,10.0,SSW,3.5,-,N/A,,Overcast,200,2012-11-24 01:35:00
8:55 PM,52.3,43.5,72,29.74,10.0,South,3.5,-,N/A,,Drizzle,180,2012-11-24 01:55:00
9:15 PM,52.0,43.2,72,29.73,10.0,South,5.8,-,N/A,,Overcast,180,2012-11-24 02:15:00
9:35 PM,51.8,43.5,73,29.73,10.0,SSW,3.5,-,N/A,,Light Drizzle,200,2012-11-24 02:35:00
9:55 PM,51.1,43.9,76,29.72,10.0,South,4.6,-,N/A,Rain,Light Rain,180,2012-11-24 02:55:00
10:15 PM,50.4,44.4,80,29.72,10.0,Calm,Calm,-,N/A,,Overcast,0,2012-11-24 03:15:00
10:35 PM,50.2,44.1,79,29.70,10.0,Calm,Calm,-,N/A,,Overcast,0,2012-11-24 03:35:00
10:55 PM,50.0,43.9,79,29.70,10.0,Calm,Calm,-,N/A,,Overcast,0,2012-11-24 03:55:00
11:15 PM,50.0,43.9,79,29.70,10.0,Calm,Calm,-,N/A,,Overcast,0,2012-11-24 04:15:00
11:35 PM,50.0,43.9,79,29.69,10.0,SW,3.5,-,N/A,,Overcast,230,2012-11-24 04:35:00
11:55 PM,50.0,43.9,79,29.70,10.0,WSW,3.5,-,N/A,,Overcast,240,2012-11-24 04:55:00